Weather in Kempten

Germany     47°43′27″N   10°18′47″E
temp.,
°C
wind,
m/s
gust,
m/s
humid.,
%
clouds,
%
prec.,
mm/h
press.,
hPa
HPBL,
m
22 september, wed
wed2223:00+6ese11975 0.0 103018
02:00+5e119899 0.0 103017
05:00+4ene219899 0.0 102920
08:00+5e1196100 0.0 103039
11:00+12ene3464100 0.0 1028580
14:00+15ene4549100 0.0 1026855
17:00+14ene4663100 0.0 1025683
20:00+9e3109061 0.0 1027322
23 september, thu
thu2323:00+6e25978 0.0 1027104
02:00+5ese22965 0.0 102634
05:00+4se119356 0.0 102512
08:00+6ssw118799 0.0 102415
11:00+14w12555 0.0 1021376
14:00+18w33484 0.0 1020762
17:00+17wsw36555 0.0 1019560
20:00+10sw35915 0.0 102077
24 september, fri
fri2423:00+9sw359232 0.0 102175
02:00+8sw23945 0.0 102243
05:00+8sw22944 0.0 102132
08:00+8sw12920 0.0 102128
11:00+16w24640 0.0 1020583
14:00+19w34500 0.0 10191042
17:00+18w34570 0.0 1018699
20:00+11s11920 0.0 102010
25 september, sat
sat2523:00+9s22910 0.0 102118
02:00+9s22875 0.0 102014
05:00+8sse22750 0.0 102011
08:00+9s22661 0.0 102016
11:00+19wsw014699 0.0 1019256
14:00+22ne113942 0.0 1017571
17:00+21ne226064 0.0 1016180
20:00+13ese11895 0.0 101811
26 september, sun
sun2623:00+11sse22885 0.0 101816
02:00+11sw117551 0.0 101811
05:00+11ssw117488 0.0 101912
08:00+11sse2270100 0.0 101929
11:00+20nw115268 0.0 1017336
14:00+22n215030 0.0 1017870
17:00+20ne2369100 0.0 1016284
20:00+14sse1193100 0.0 101610